Location: Ahausen
(50.4985°N, 8.2722°E)
Time: 16:17:32
(UTC+00:00)

Cosmos 1867 - Pass Details

Date: 18 September 2020
Orbit: 777 x 799 km, 65.0° (Epoch: 21 October)

Event Time Altitude Azimuth Distance (km) Brightness Sun altitude
Rises 18:24:56 0° 319° (NW) 3,314 7.8 -9.0°
Reaches altitude 10° 18:27:22 10° 320° (NW) 2,381 6.9 -9.3°
Maximum altitude 18:32:52 87° 48° (NE) 807 3.6 -10.2°
Drops below altitude 10° 18:38:21 10° 140° (SE) 2,365 5.5 -11.0°
Enters shadow 18:38:36 - 140° (SE) 2,462 5.6 -11.1°
